AQUA

Last updated on Wed Sep 09 2026 00:02:08 GMT+0000 (Coordinated Universal Time)

1 27424U 02022A 26251.60846701 .00000540 00000+0 11718-3 0 9992 2 27424 98.4378 222.5983 0001699 72.3356 342.3223 14.62194503295462
UTC large
Height (km)
Speed (km/s)
/
Latitude / Longitude
Inclination (degrees)
Orbital Period (minutes)
Azimuth
Elevation
Range (km)
Doppler Factor

Next 0 passes for location: London (51.5072 / 0.1276)

No passes found over London.
AQUA